Rodrygo Alves

Scout - Nautico
25 Nov 2027
Donnerstag
Verarbeitung

Persönlichkeit

Anpassungsfähigkeit (7) Ehrgeiz (11) Kontroverse (15) Loyalität (8) Druck (1) Professionalität (6) Fairness (15) Temperament (19)

Profil

Trainerstil Demokratisch
Lizenz Nationale A
Entschlossenheit 5
Menschenführung 11
Motivation 12
Disziplin 5
Arbeitszufriedenheit
91%
Ermüdung
0%
Rolle Scout
Gehalt 57.9K p/W
Vertrag 14.03.2029

Leistung

Verhalten Gut
Trainingseffektivität
32%
Spielerentwicklung
55%
Verletzungsprävention
40%
Taktische Umsetzung
20%

Letzte Ereignisse

Nahm an einer Scouting-Besprechung teil jetzt
Empfahl ein Transferziel jetzt
Empfahl ein Transferziel jetzt
Empfahl ein Transferziel jetzt
Spieler begutachtet 7T her
Spieler begutachtet 7T her
Spieler begutachtet 7T her
Spieler begutachtet 7T her

Aktuell beobachtet

135
Spieler Verein Status Fähigkeit Vertrauen Beobachtet Zuletzt beobachtet Letzte Stimme
Daniel Costa Sporting CP Aktiv 98 / 114 40% 3 23.11.2027 -
Matías Canedo Rampla Juniors Aktiv 77 / 84 40% 3 23.11.2027 -
Eduardo Felicíssimo Sporting CP Aktiv 102 / 148 40% 4 21.11.2027 -
Lucas Camejo River Plate Aktiv 82 / 85 40% 2 21.11.2027 -
Hosea Michael Remo Stars Aktiv 79 / 91 40% 3 19.11.2027 -
David Damboama El-Kanemi Warriors Aktiv 89 / 70 40% 8 19.11.2027 -
Gonçalo Oliveira Benfica Aktiv 121 / 111 40% 7 18.11.2027 -
Hervin Goyes Deportivo Pasto Aktiv 113 / 100 40% 4 18.11.2027 -
Luis Otávio Colorado Rapids Aktiv 117 / 122 40% 3 17.11.2027 -
Marvelous Freedom Ikorodu City Aktiv 95 / 85 40% 2 16.11.2027 -
Onuorah Onyedika Kun Khalifat Aktiv 65 / 108 40% 6 15.11.2027 -
Ignacio Fernández Boston River Aktiv 82 / 93 40% 2 15.11.2027 -
Godwin Oham Warri Wolves Aktiv 88 / 75 40% 6 13.11.2027 -
Tiago Gordillo San Miguel Aktiv 91 / 103 40% 2 13.11.2027 -
Gift Udoh Ikorodu City Aktiv 82 / 96 40% 8 12.11.2027 -
Kauã Moraes Cruzeiro Aktiv 134 / 131 40% 3 11.11.2027 -
Olaniyi Saheed Kwara United Aktiv 111 / 90 40% 4 09.11.2027 -
Martim Cunha Porto Aktiv 120 / 98 40% 4 08.11.2027 -
Ricky Atletico Venezuela Aktiv 90 / 105 40% 4 08.11.2027 -
Joel Ezra Enyimba Aktiv 96 / 112 40% 5 06.11.2027 -
Daniel Banjaqui Benfica Aktiv 124 / 135 40% 2 05.11.2027 -
Mauro Carrizo Atlético Tucumán Aktiv 114 / 118 40% 2 01.11.2027 -
João Teixeira Porto Aktiv 132 / 132 40% 3 30.10.2027 -
Mads Bomholt Stabaek Aktiv 97 / 93 40% 5 29.10.2027 -
Mikkel Hope Haugesund Aktiv 112 / 126 40% 5 27.10.2027 -
Jackson Imbiakha Muranga Seal Aktiv 61 / 87 40% 3 26.10.2027 -
David Asayure Lokomotivi Aktiv 75 / 94 40% 1 26.10.2027 -
Figueiredo Sampaio Correa Aktiv 83 / 107 40% 5 25.10.2027 -
Juan Camilo Córdoba Deportivo Pereira Aktiv 98 / 103 40% 2 23.10.2027 -
Tiago Freitas Benfica Aktiv 106 / 139 40% 1 23.10.2027 -
Mohammed Habib Sarwari Kariobangi Sharks Aktiv 55 / 93 40% 2 21.10.2027 -
Junior Machis Atletico Venezuela Aktiv 76 / 71 40% 2 16.10.2027 -
Bahia Criciuma Aktiv 118 / 119 40% 1 16.10.2027 -
Alejandro Almaraz Nueva Chicago Aktiv 100 / 126 40% 3 08.10.2027 -
Mpho Khethang AS Police Aktiv 89 / 92 40% 2 27.09.2027 -
Jofrank Istifanus Nasarawa United Aktiv 79 / 102 40% 1 23.09.2027 -
Nicolas Sport Recife Aktiv 110 / 118 40% 1 18.09.2027 -
Mbekezeli Mbokazi Chicago Fire Aktiv 136 / 122 40% 1 13.09.2027 -
André Lucas Sampaio Correa Aktiv 80 / 90 40% 1 13.09.2027 -
João Capucho Benfica Aktiv 95 / 122 40% 2 12.07.2027 -
Davide Bartesaghi AC Milan Aktiv 153 / 139 40% 1 12.07.2027 -
Adam Bakoune Ospitaletto Aktiv 106 / 119 40% 2 08.06.2027 -
Cheveyo Tsawa Club Brugge Aktiv 113 / 126 40% 1 08.06.2027 -
Pablo Internacional Aktiv 96 / 94 51% 1 06.06.2027 -
Yussif Saidu Zaragoza Aktiv 136 / 111 40% 3 03.06.2027 -
Andreas Trimmel Red Bull Salzburg Aktiv 131 / 131 60% 1 01.06.2027 Befürworten
Amar Memić Casa Pia Aktiv 127 / 128 62% 1 01.06.2027 Befürworten
Dion Beljo Standard Liege Aktiv 131 / 132 66% 1 01.06.2027 Befürworten
Christos Mouzakitis Hull City Aktiv 144 / 141 40% 1 01.06.2027 -
Lewis Morgan SuperSport United Aktiv 145 / 140 40% 6 28.05.2027 -
Richard Koné Queens Park Rangers Aktiv 107 / 115 40% 2 27.05.2027 -
Ilias Chair Queens Park Rangers Aktiv 111 / 134 40% 2 26.05.2027 -
Tom Fellows Southampton Aktiv 144 / 127 40% 2 25.05.2027 -
Caleb Yirenkyi Coventry City Aktiv 123 / 133 40% 2 23.05.2027 Mehr Infos nötig
Cian Ashford Cardiff City Aktiv 109 / 121 40% 2 23.05.2027 -
Alex Lowry Wycombe Wanderers Aktiv 113 / 125 40% 1 22.05.2027 -
Tatsuhiro Sakamoto Coventry City Aktiv 135 / 131 40% 1 20.05.2027 -
Ronald Swansea City Aktiv 143 / 136 40% 1 20.05.2027 -
Ollie Tanner Cardiff City Aktiv 122 / 120 40% 3 17.05.2027 -
Alex Robertson Cardiff City Aktiv 137 / 119 40% 1 15.05.2027 -
Ryoya Morishita Blackburn Rovers Aktiv 117 / 111 40% 2 13.05.2027 -
Josh Smith Accrington Stanley Aktiv 92 / 73 40% 1 13.05.2027 -
Welington Southampton Aktiv 118 / 133 40% 1 12.05.2027 -
Ianis Hagi Alanyaspor Aktiv 136 / 114 40% 1 12.05.2027 -
Leandro Martins Benfica Aktiv 78 / 83 40% 2 09.05.2027 -
Tyreece Campbell Charlton Athletic Aktiv 105 / 127 40% 2 09.05.2027 -
Christ Inao Oulaï Fiorentina Aktiv 130 / 152 40% 1 09.05.2027 -
Isaiah Jones Luton Town Aktiv 140 / 106 40% 2 07.05.2027 -
Callum O'Hare Sheffield United Aktiv 149 / 112 40% 1 07.05.2027 -
Daniel Kyerewaa Reading Aktiv 100 / 124 40% 1 05.05.2027 -
Stanley Mills Oxford United Aktiv 117 / 111 40% 2 04.05.2027 -
Ethan Williams Peterborough United Aktiv 122 / 106 40% 1 03.05.2027 -
Jack McGlynn Stoke City Aktiv 136 / 119 40% 1 02.05.2027 -
Louie Barry Sheffield Wednesday Aktiv 117 / 141 40% 1 02.05.2027 -
Tshepang Moremi Orlando Pirates Aktiv 98 / 125 40% 2 01.05.2027 -
Zian Flemming Ipswich Town Aktiv 133 / 150 40% 1 30.04.2027 -
Riley Owen Trento Aktiv 89 / 104 40% 1 26.04.2027 -
Jan Bürger Gillingham Aktiv 114 / 126 40% 1 25.04.2027 -
Santi García Gil Vicente Aktiv 118 / 130 40% 2 23.04.2027 -
Samu Vitoria Guimaraes Aktiv 142 / 105 40% 3 23.04.2027 -
Pablo Fernández Leiria Aktiv 118 / 119 40% 1 22.04.2027 -
Ole Pohlmann Rio Ave Aktiv 109 / 137 40% 1 22.04.2027 -
André Silva Tondela Aktiv 121 / 119 40% 4 21.04.2027 Beobachten
Martín Tejón Maritimo Aktiv 114 / 125 40% 2 21.04.2027 -
Juninho Pumas UNAM Aktiv 142 / 119 40% 2 19.04.2027 -
Naïs Djouahra Arouca Aktiv 110 / 119 40% 1 19.04.2027 -
Matías Gómez Granada Aktiv 120 / 138 40% 1 18.04.2027 -
Zaïd BafdilI Sporting CP Aktiv 104 / 84 40% 1 18.04.2027 -
Joel McGregor Swindon Town Aktiv 106 / 117 40% 1 17.04.2027 -
Derensili Sanches Fernandes Huddersfield Town Aktiv 128 / 118 40% 2 15.04.2027 -
Simo Maritimo Aktiv 133 / 96 40% 3 15.04.2027 -
Francisco Moura Lusitânia Lourosa Aktiv 141 / 134 40% 2 14.04.2027 -
Renato Sanches AVS Aktiv 117 / 137 40% 2 10.04.2027 -
Luis Quintero Torreense Aktiv 112 / 117 40% 4 09.04.2027 -
Manu Pozo Torreense Aktiv 126 / 100 40% 2 09.04.2027 -
Nabil Touaizi Alverca Aktiv 120 / 113 40% 2 08.04.2027 -
Alfonso Trezza Arouca Aktiv 133 / 103 40% 1 06.04.2027 -
Makan Aïko Tondela Aktiv 127 / 100 40% 2 04.04.2027 -
Benny Feirense Aktiv 115 / 129 40% 1 02.04.2027 -
Lorougnon Gohi Académico de Viseu Aktiv 112 / 118 40% 3 01.04.2027 -
Cristian Ferreira Académico de Viseu Aktiv 118 / 113 40% 2 26.03.2027 -
Rafik Guitane Estoril Praia Aktiv 142 / 128 40% 2 23.03.2027 -
Luís Esteves Atlas Aktiv 125 / 131 40% 1 23.03.2027 -
Figueiredo Alverca Aktiv 139 / 131 40% 1 21.03.2027 -
Dinis Pinto Moreirense Aktiv 117 / 114 40% 1 21.03.2027 -
Emi Rodriguez Leon Aktiv 119 / 122 40% 1 20.03.2027 -
Jesús Ricardo Angulo Toluca Aktiv 142 / 142 40% 1 19.03.2027 -
Mduduzi Shabalala Kaizer Chiefs Aktiv 97 / 96 40% 1 18.03.2027 -
Jordan van der Gaag Leiria Aktiv 93 / 125 40% 1 30.11.2026 -
Jordan Holsgrove Estoril Praia Aktiv 113 / 147 40% 1 24.11.2026 -
Jalen Blesa Rio Ave Aktiv 99 / 109 40% 1 20.11.2026 -
Gustavo Silva Vitoria Guimaraes Aktiv 111 / 132 40% 2 16.11.2026 -
Caio Alexandre Bahia Aktiv 138 / 127 40% 1 15.11.2026 -
Negueba Mirassol Aktiv 122 / 136 40% 1 07.11.2026 -
Rodrigo Ramos Moreirense Aktiv 102 / 104 40% 1 06.11.2026 -
Lohann Doucet Vitoria Guimaraes Aktiv 115 / 141 40% 1 04.11.2026 -
William Gomes Porto Aktiv 139 / 143 40% 2 24.10.2026 -
Jan Virgili Club Brugge Aktiv 116 / 154 40% 1 23.10.2026 -
João Abreu Porto Aktiv 97 / 82 40% 1 23.10.2026 -
André Oliveira Porto Aktiv 86 / 115 40% 1 19.10.2026 -
João Simões Sporting CP Aktiv 113 / 136 40% 4 18.10.2026 -
Rayan Lucas Alverca Aktiv 102 / 131 40% 1 18.10.2026 -
Lovro Zvonarek Estrela da Amadora Aktiv 135 / 128 40% 2 17.10.2026 -
Pedro Bondo Famalicao Aktiv 134 / 115 40% 1 17.10.2026 -
Joseph Nduquidi Farense Aktiv 115 / 125 40% 1 15.10.2026 -
Othmane Maamma Watford Aktiv 119 / 138 40% 1 15.10.2026 -
Mathias De Amorim Famalicao Aktiv 134 / 145 40% 1 12.10.2026 -
Martim Fernandes Porto Aktiv 144 / 160 40% 3 10.10.2026 -
Bernardes Benfica Aktiv 93 / 106 40% 2 09.10.2026 -
Salvador Blopá Casa Pia Aktiv 111 / 118 40% 1 11.09.2026 -
Gonçalo Sousa Porto Aktiv 112 / 94 40% 1 07.09.2026 -
Bénie Traoré New York City Aktiv 117 / 135 40% 1 04.08.2026 -
Jesse Derry Chelsea Aktiv 83 / 107 40% 1 02.08.2026 -
Gustaf Lagerbielke Braga Aktiv 141 / 154 40% 1 01.08.2026 -
Vitor Carvalho Braga Aktiv 144 / 130 40% 1 01.08.2026 -